Location: Newark
(43.0000°N, 1.6781°W)
Time: 05:37:41
(UTC+00:00)

XW-2C - Pass Details

Date: 04 December 2022
Orbit: 491 x 506 km, 97.5° (Epoch: 28 January)

Event Time Altitude Azimuth Distance (km) Brightness Sun altitude
Rises 06:07:09 0° 15° (NNE) 2,582 ? -13.2°
Reaches altitude 10° 06:09:15 10° 19° (NNE) 1,694 ? -12.8°
Maximum altitude 06:12:51 62° 101° (E) 557 ? -12.2°
Drops below altitude 10° 06:16:26 10° 183° (S) 1,680 ? -11.6°
Sets 06:18:31 0° 186° (S) 2,559 ? -11.2°
